This demonstration page uses our WeatherBlox Daily Observations layout. Learn more.

Left ArrowRight Arrow

30.00354, -91.81873

Hourly Observations for May 21, 2019

Temp ( °F °C ) Dew Point ( °F °C ) Humidity (%) Winds ( mph kmh ) Pressure ( in mb ) Visibility ( mi km ) Precip ( " mm )
12:35 am 00:35 Mostly Cloudy 78 25.6 76 24.4 93 93 SSE 12 19 29.85 1011 10 16 0.00 0.00
12:53 am 00:53 Mostly Cloudy 78 25.6 76 24.4 93 93 SSE 12 19 29.85 1011 10 16 0.00 0.00
1:36 am 01:36 Mostly Cloudy 78 25.6 75 23.9 90 90 SSE 13 20 29.84 1010 10 16 0.00 0.00
1:53 am 01:53 Mostly Cloudy 77 25 75 23.9 94 94 SSE 10 17 29.83 1010 10 16 0.00 0.00
2:02 am 02:02 Partly Cloudy 77 25 75 23.9 94 94 SSE 12 19 29.83 1010 10 16 0.00 0.00
2:53 am 02:53 Mostly Clear 77 25 75 23.9 94 94 SSE 12 19 29.82 1010 10 16 0.00 0.00
3:17 am 03:17 Mostly Cloudy 77 25 75 23.9 94 94 SSE 10 17 29.83 1010 10 16 0.00 0.00
3:53 am 03:53 Mostly Cloudy 77 25 75 23.9 94 94 SSE 12 19 29.83 1010 10 16 0.00 0.00
4:31 am 04:31 Partly Cloudy 77 25 75 23.9 94 94 SSE 13 20 29.82 1010 10 16 0.00 0.00
4:53 am 04:53 Partly Cloudy 77 25 75 23.9 94 94 SSE 13 20 29.81 1010 10 16 0.00 0.00
5:53 am 05:53 Mostly Clear 76 24.4 75 23.9 97 97 SE 14 22 29.80 1009 10 16 0.00 0.00
6:53 am 06:53 Mostly Sunny 76 24.4 74 23.3 94 94 SE 13 20 29.81 1009 10 16 0.00 0.00
8:08 am 08:08 Partly Cloudy 79 26.1 75 23.9 88 88 SSE 18 30 29.80 1009 10 16 0.00 0.00
8:53 am 08:53 Partly Cloudy with Light Rain 81 27.2 74 23.3 79 79 SSE 25 41 29.80 1009 10 16 0.00 0.03
9:53 am 09:53 Partly Cloudy with Light Rain 83 28.3 74 23.3 74 74 SSE 23 37 29.81 1010 10 16 0.00 0.03
10:53 am 10:53 Partly Cloudy with Light Rain 84 28.9 74 23.3 72 72 S 24 39 29.84 1011 10 16 0.00 0.03
1:33 pm 13:33 Mostly Cloudy with Light Rain 85 29.4 74 23.3 70 70 S 23 37 29.83 1010 10 16 0.00 0.03
1:53 pm 13:53 Mostly Cloudy 85 29.4 75 23.9 72 72 SSE 17 28 29.83 1010 10 16 0.00 0.03
2:53 pm 14:53 Mostly Cloudy 85 29.4 75 23.9 72 72 S 17 28 29.82 1010 10 16 0.00 0.00
3:53 pm 15:53 Cloudy 85 29.4 75 23.9 72 72 SSE 20 31 29.82 1010 10 16 0.00 0.00
4:28 pm 16:28 Mostly Cloudy 84 28.9 75 23.9 74 74 S 18 30 29.82 1010 10 16 0.00 0.00
4:44 pm 16:44 Mostly Cloudy 83 28.3 75 23.9 77 77 SSE 20 31 29.81 1009 10 16 0.00 0.00
4:53 pm 16:53 Mostly Cloudy 84 28.9 76 24.4 77 77 S 15 24 29.81 1009 10 16 0.00 0.00
5:53 pm 17:53 Mostly Cloudy 83 28.3 75 23.9 77 77 S 17 28 29.80 1009 10 16 0.00 0.00
6:53 pm 18:53 Mostly Cloudy 81 27.2 75 23.9 82 82 SSE 18 30 29.79 1009 10 16 0.00 0.00
7:15 pm 19:15 Mostly Cloudy 81 27.2 75 23.9 82 82 S 14 22 29.79 1009 10 16 0.00 0.00
7:53 pm 19:53 Mostly Cloudy 80 26.7 75 23.9 85 85 S 16 26 29.80 1009 10 16 0.00 0.00
8:53 pm 20:53 Cloudy 80 26.7 76 24.4 87 87 SSE 12 19 29.81 1010 10 16 0.00 0.00
9:53 pm 21:53 Mostly Cloudy 80 26.7 76 24.4 87 87 SSE 12 19 29.83 1010 10 16 0.00 0.00
10:53 pm 22:53 Mostly Cloudy 80 26.7 76 24.4 87 87 S 15 24 29.85 1011 10 16 0.00 0.03
11:53 pm 23:53 Mostly Cloudy 80 26.7 76 24.4 87 87 S 10 17 29.86 1011 10 16 0.00 0.00

Powered by AerisWeather